Location: Gairloch Mountain Observatory
(46.1383°N, 60.9640°W)
Time: 23:16:59
(UTC-03:00)

Daily predictions for brighter satellites

Satellite Brightness Start Highest point End
(mag) Time Altitude Azimuth Time Altitude Azimuth Time Altitude Azimuth
Cosmos 2112 Rocket 4.1 21:09:57 10° S 21:15:04 60° ESE 21:20:12 10° NNE
Cosmos 1818 4.4 21:12:38 10° SW 21:17:59 59° NW 21:23:24 10° NNE
Cosmos 1238 Rocket 4.3 21:11:56 10° SSE 21:18:30 57° E 21:24:44 10° NNE
Cosmos 1624 Rocket 4.5 21:14:29 10° NNW 21:19:38 50° ENE 21:24:46 10° SE
CZ-4B DEB 2.9 21:18:09 10° S 21:21:06 67° WSW 21:24:05 10° NNW
Cosmos 1697 Rocket 4.3 21:17:22 10° N 21:21:49 23° NE 21:26:14 10° E
ASTEX 1 3.5 21:17:34 10° SSE 21:22:24 61° E 21:27:14 10° N
H-2A R/B 3.4 21:19:58 10° ESE 21:23:56 24° ENE 21:27:58 10° N
Intercosmos 24 4.1 21:20:26 10° N 21:24:17 46° ENE 21:27:42 10° SSE
ISS -3.6 21:22:52 10° SW 21:26:04 49° SE 21:29:17 10° ENE
Cosmos 1346 3.4 21:25:01 10° SSW 21:27:44 62° WNW 21:30:30 10° N
Cosmos 2228 4.5 21:25:42 10° NNE 21:29:06 22° ENE 21:32:28 10° ESE
Helios 1A 3.9 21:25:14 10° S 21:29:18 48° W 21:33:23 10° NNW
Meteor 2-9 Rocket 4.2 21:24:33 10° N 21:30:04 86° E 21:35:42 10° S
Cosmos 921 Rocket 3.9 21:27:32 10° N 21:31:43 36° ENE 21:35:45 10° SE
Cosmos 1939 Rocket 3.7 21:30:46 10° S 21:34:30 48° W 21:38:16 10° NNW
SL-27 R/B 2.5 21:30:52 10° SSW 21:34:31 85° ESE 21:38:11 10° NNE
Cosmos 839 Rocket 4.5 21:29:21 10° NNW 21:35:44 65° NE 21:43:11 11° SE
Cosmos 1666 3.3 21:32:07 10° NNW 21:35:48 56° W 21:39:28 10° S
YAOGAN 6 2.7 21:33:15 10° S 21:36:44 72° WSW 21:40:16 10° NNW
Cosmos 1680 Rocket 3.7 21:32:26 10° SSW 21:37:39 77° WNW 21:42:54 10° NNE
Cosmos 2341 Rocket 4.4 21:32:01 10° N 21:38:13 52° ENE 21:44:25 10° SSE
SL-08 RB Rocket 4.5 21:34:18 10° SE 21:38:22 36° ENE 21:42:28 10° N
Cosmos 2056 Rocket 3.6 21:33:49 10° NNW 21:38:59 66° ENE 21:43:56 11° SSE
Okean 1-7 Rocket 3.6 21:36:49 10° S 21:41:16 77° E 21:45:47 10° NNE
Cosmos 1833 Rocket 4.0 21:37:40 10° SE 21:41:39 20° E 21:45:41 10° NE
Cosmos 1892 Rocket 4.3 21:38:35 10° SSE 21:42:36 34° E 21:46:36 10° NNE
Envisat 4.3 21:41:22 10° SSW 21:46:04 38° W 21:50:48 10° NNW
Cosmos 1437 Rocket 2.7 21:42:17 10° N 21:46:06 69° ENE 21:49:49 11° SSE
MetOp-A 4.2 21:42:25 10° SSE 21:47:46 77° ENE 21:53:08 10° NNW
Meteor 2-4 Rocket 4.0 21:43:06 10° SSW 21:48:47 79° WNW 21:54:39 10° N
Helios 1B rocket 3.7 21:45:50 10° N 21:49:47 44° WNW 21:53:43 10° SW
Cosmos 1606 Rocket 3.5 21:47:45 10° N 21:52:05 70° E 21:56:06 12° SSE
Cosmos 1726 Rocket 3.5 21:57:30 10° N 22:01:51 74° E 22:05:30 14° SSE
Cosmos 405 4.2 21:59:02 10° NNW 22:02:24 39° W 22:05:43 10° SSW
Cosmos 1025 Rocket 3.4 22:01:50 10° SSW 22:06:04 66° W 22:10:19 10° N
USA 245 2.0 22:04:55 22° SSE 22:06:19 72° ENE 22:08:38 10° N
Cosmos 1515 3.6 22:06:01 11° S 22:09:35 68° E 22:13:23 10° NNE
Cosmos 1980 Rocket 3.4 22:05:15 10° N 22:10:16 31° NE 22:14:37 13° ESE
Cosmos 1452 Rocket 3.9 22:05:46 10° NNW 22:10:57 54° ENE 22:14:43 18° SE
Aureole 1 Rocket 4.4 22:08:38 10° SW 22:11:23 28° WNW 22:14:03 10° N
Cosmos 2181 Rocket 4.1 22:05:11 10° S 22:11:28 66° E 22:17:42 10° NNE
COSMOS 2487 2.9 22:09:55 16° S 22:12:29 43° ESE 22:15:53 10° NNE
SPOT 1/Viking Rocket 3.6 22:11:01 16° SSE 22:15:09 73° ENE 22:20:19 10° N
Iridium 43 3.8 22:13:05 10° N 22:15:14 43° E 22:15:42 36° ESE
Cosmos 2058 Rocket 3.0 22:11:51 10° N 22:16:16 78° E 22:19:32 18° SSE
Cosmos 1295 Rocket 4.5 22:10:20 10° N 22:16:33 82° E 22:21:56 15° S
Landsat 7 4.2 22:13:34 18° SE 22:16:50 50° ENE 22:21:27 10° N
YAOGAN 11 4.3 22:14:35 13° S 22:18:18 66° WSW 22:22:38 10° NNW
Cosmos 2322 Rocket 4.3 22:16:26 10° N 22:20:09 17° NE 22:23:51 10° E
ARGOS 3.3 22:17:02 13° S 22:21:51 73° WSW 22:27:18 10° NNW
Okean 2 4.1 22:19:31 10° SSW 22:23:30 53° WNW 22:27:31 10° N
ERS-1 Rocket 4.2 22:22:21 10° SSW 22:26:58 36° W 22:31:37 10° NNW
Lacrosse 5 rocket 3.7 22:23:43 10° NW 22:27:30 24° NNE 22:31:18 10° ENE
Tiangong 2 1.4 22:24:40 10° WSW 22:27:43 44° S 22:28:45 31° SE
Terra 2.2 22:29:04 22° SE 22:31:51 50° ENE 22:36:28 10° N
SPOT 5 3.2 22:30:14 15° S 22:33:39 52° W 22:37:57 10° NNW
Meteor 2-21 4.5 22:30:45 10° N 22:36:46 67° ENE 22:40:44 22° SSE
Cosmos 1812 Rocket 4.2 22:35:04 10° N 22:39:21 42° ENE 22:41:22 26° SE
H-2A R/B 2.4 22:38:05 26° SE 22:40:30 57° ENE 22:44:57 10° N
IGS 5A 3.7 22:41:45 28° SE 22:43:43 58° ENE 22:47:49 10° N
Cosmos 2278 4.2 22:39:58 10° NW 22:45:31 53° WSW 22:49:20 20° S
USA 229 DEB 4.1 22:39:22 10° NW 22:46:27 64° NE 22:51:39 20° ESE
USA 229 4.1 22:39:28 10° NW 22:46:34 63° NE 22:51:47 20° ESE
SL-19 R/B 4.4 22:42:21 10° NNE 22:47:32 47° E 22:50:09 26° SSE
Cosmos 2082 Rocket 2.1 22:41:58 10° SSW 22:47:37 72° ESE 22:53:16 10° NNE
SL-8 Rocket 4.1 22:42:56 10° N 22:49:12 77° W 22:53:49 19° S
Meteor 1-22 Rocket 4.1 22:44:00 10° N 22:49:19 74° ENE 22:52:21 27° SSE
Cosmos 1626 Rocket 3.5 22:49:15 29° S 22:51:20 65° E 22:55:38 10° NNE
ATLAS CENTAUR R/B 3.5 22:49:19 10° N 22:51:44 16° NE 22:54:08 10° ENE
PSLV R/B 3.4 22:52:45 42° E 22:53:00 44° ENE 22:55:41 10° N
Cosmos 1805 4.3 22:50:58 10° N 22:54:29 31° ENE 22:55:33 27° ESE
Cosmos 2366 rocket 3.9 22:48:46 10° N 22:54:58 89° E 22:58:51 24° S
ISS -2.4 22:59:30 10° W 23:02:38 40° NNW 23:05:48 10° ENE
H-2A R/B 2.7 22:59:49 20° SSW 23:03:04 48° W 23:07:57 10° NNW
Cosmos 1697 Rocket 2.8 23:00:44 10° NNW 23:06:20 70° WSW 23:09:12 29° S
Cosmos 2228 4.2 23:02:51 10° NNW 23:06:47 35° W 23:09:27 18° SSW
Cosmos 2360 4.4 23:01:11 10° NNW 23:06:53 64° ENE 23:09:48 29° SE
Cosmos 158 Rocket 4.2 23:06:20 31° SSE 23:08:38 53° ESE 23:13:52 10° NNE
SL-16 R/B 3.4 23:07:13 10° NNW 23:12:23 34° NE 23:15:46 19° ESE
Meteor 1-4 Rocket 3.5 23:09:48 10° NNW 23:13:12 39° W 23:14:27 28° SW
Cosmos 1656 4.4 23:08:38 10° NW 23:13:46 43° WSW 23:16:38 24° SSW
CZ-4B R/B 3.7 23:09:51 10° NNE 23:14:52 55° ESE 23:16:50 34° SSE
CZ-4C R/B 3.4 23:16:18 44° ESE 23:16:55 50° ENE 23:20:27 10° N
Iridium 2 3.6 23:17:06 10° N 23:20:54 81° E 23:21:42 54° SSE
DMSP B5D2-2 4.4 23:16:29 10° N 23:21:44 65° WNW 23:25:40 18° SSW
Cosmos 1842 3.2 23:23:40 52° SSE 23:24:29 73° E 23:28:26 10° NNE
Cosmos 1833 Rocket 3.0 23:19:27 10° SW 23:25:02 66° WNW 23:30:40 10° NNE
Cosmos 1602 Rocket 4.0 23:23:56 26° SSW 23:26:13 56° WNW 23:30:29 10° N
Orbus 7S? 3.7 23:19:29 10° NW 23:26:34 83° NE 23:27:51 42° ESE
Cosmos 1271 Rocket 2.7 23:24:39 10° NNW 23:28:34 77° W 23:29:26 52° S
Timation 2 Rocket 3.9 23:23:59 18° SSW 23:28:55 85° ESE 23:35:05 10° NNE
CZ-4 R/B 3.9 23:24:50 10° NNE 23:29:53 88° ESE 23:32:13 33° SSW
deb Chang Zheng 4 3.8 23:28:04 10° N 23:32:22 67° WNW 23:34:19 31° SSW
Cosmos 1269 Rocket 3.9 23:30:24 30° SSW 23:33:08 86° ESE 23:38:28 10° NNE
Cosmos-2242 4.2 23:29:45 10° N 23:33:34 30° ENE 23:34:30 27° E
Cosmos 1733 3.9 23:38:30 10° N 23:42:09 40° ENE 23:42:30 39° E
Cosmos 1953 2.3 23:38:31 10° N 23:42:37 78° E 23:43:18 60° SSE
Cosmos 1934 Rocket 4.3 23:36:29 10° N 23:42:45 56° ENE 23:45:24 34° SE
DELTA 2 DEB (DPAF) 4.2 23:42:18 46° S 23:43:33 71° WSW 23:48:03 10° NNW
Cosmos 389 Rocket 2.3 23:40:25 10° N 23:43:55 75° E 23:43:58 74° E
CZ-2C R/B 4.0 23:42:14 27° ESE 23:44:34 41° ENE 23:49:52 10° N
Cosmos 1048 Rocket 4.1 23:42:29 27° SSW 23:45:19 73° WNW 23:50:32 10° NNE
SME Rocket 3.5 23:44:43 40° SE 23:46:22 65° ENE 23:50:25 10° N
Cosmos 1331 Rocket 4.1 23:42:53 10° NNW 23:48:03 66° ENE 23:49:46 41° SE
Cosmos 1110 Rocket 4.0 23:44:39 10° NNW 23:49:56 78° ENE 23:51:37 44° SE
Cosmos 2360 Rocket 3.6 23:48:10 10° N 23:53:10 30° NE 23:56:43 16° ESE
Cosmos 1980 Rocket 2.7 23:49:03 10° NW 23:54:29 49° WSW 23:56:23 35° SSW
